NJE2AW SCJO-SCQP

Flight info

Callsign NJE2AW
Flight time N/A
Altitude 20000
Route ANROS2P ANROS V551 MALTU MALTU3
Aircraft B717/M-SDE3FGHIRWY/LB1

Departure

Time 2026-05-05 16:17
Airport Cañal Bajo Carlos Hott Siebert Airport (SCJO)

Arrival

Time N/A
Airport La Araucanía International Airport (SCQP)
Time Latitude Longitude Altitude Speed Heading
2026-05-05 16:10 -40.60535 -73.06111 207 ft 0 kts 348°
2026-05-05 16:12 -40.60519 -73.06120 209 ft 1 kts 320°
2026-05-05 16:13 -40.60496 -73.06203 206 ft 5 kts 332°
2026-05-05 16:13 -40.60487 -73.06209 203 ft 4 kts 332°
2026-05-05 16:14 -40.60471 -73.06220 204 ft 2 kts 332°
2026-05-05 16:14 -40.60480 -73.06321 210 ft 6 kts 245°
2026-05-05 16:15 -40.60477 -73.06451 203 ft 13 kts 326°
2026-05-05 16:15 -40.60302 -73.06525 205 ft 11 kts 15°
2026-05-05 16:16 -40.60246 -73.06580 212 ft 3 kts 213°
2026-05-05 16:16 -40.60281 -73.06563 211 ft 16 kts 157°
2026-05-05 16:17 -40.61620 -73.05762 459 ft 166 kts 153°
2026-05-05 16:17 -40.62602 -73.05101 1080 ft 185 kts 143°
2026-05-05 16:18 -40.64271 -73.02302 2743 ft 209 kts 108°
2026-05-05 16:18 -40.64738 -73.00434 3528 ft 222 kts 94°
2026-05-05 16:18 -40.64193 -72.96457 5161 ft 233 kts 49°
2026-05-05 16:19 -40.63034 -72.94932 5990 ft 242 kts 29°
2026-05-05 16:19 -40.61575 -72.93685 6815 ft 255 kts 22°
2026-05-05 16:19 -40.58103 -72.92557 8828 ft 265 kts
2026-05-05 16:20 -40.56269 -72.92309 9888 ft 271 kts 359°
2026-05-05 16:21 -40.54856 -72.92180 10569 ft 278 kts 358°
2026-05-05 16:22 -40.48624 -72.91437 12808 ft 320 kts
2026-05-05 16:22 -40.46368 -72.91109 13585 ft 332 kts